TWISTERF5 Weather Reports


time (UTC)temp
C
wind
direction
speed
KPH
gust
KPH
rain 1hr
cm
rain 24hr
cm
rain mn
cm
humidity
%
barometer
mb
20260508004538 6 0 0.0 6.4 0.00 0.05 0.05 77 1006.6
20260508004014 6 0 0.0 6.4 0.00 0.05 0.05 77 1006.4
20260508003516 6 5 0.0 8.0 0.00 0.05 0.05 77 1006.4
20260508003032 6 0 1.6 12.9 0.00 0.05 0.05 76 1006.4
20260508002515 6 0 0.0 16.1 0.00 0.05 0.05 75 1006.3
20260508002014 6 324 3.2 20.9 0.00 0.05 0.05 74 1006.3
20260508001533 7 342 9.7 20.9 0.00 0.05 0.05 71 1006.2
20260508001017 7 298 1.6 11.3 0.00 0.05 0.05 70 1006.0
20260508000520 7 286 3.2 12.9 0.00 0.05 0.05 70 1006.0
20260508000037 7 298 6.4 16.1 0.00 0.05 0.05 69 1005.8
20260507235516 7 285 4.8 17.7 0.00 0.05 0.05 69 1005.8
20260507235016 7 294 6.4 17.7 0.00 0.05 0.05 68 1005.7
20260507234543 7 314 6.4 16.1 0.00 0.05 0.05 67 1005.6
20260507234015 7 269 4.8 16.1 0.00 0.05 0.05 67 1005.6
20260507233515 7 309 6.4 16.1 0.00 0.05 0.05 68 1005.5
20260507233035 7 296 4.8 16.1 0.00 0.05 0.05 68 1005.5
20260507232519 7 294 4.8 16.1 0.00 0.05 0.05 67 1005.4
20260507232014 7 315 4.8 14.5 0.00 0.05 0.05 66 1005.5
20260507231537 8 288 6.4 20.9 0.00 0.05 0.05 66 1005.4
20260507231015 8 293 4.8 20.9 0.00 0.05 0.05 65 1005.4
20260507230517 8 290 8.0 22.5 0.00 0.05 0.05 65 1005.4
20260507230031 8 287 4.8 27.4 0.00 0.05 0.05 66 1005.2
20260507225515 8 257 8.0 27.4 0.00 0.05 0.05 67 1005.2
20260507225017 8 306 8.0 27.4 0.00 0.05 0.05 67 1005.1
20260507224533 8 325 1.6 14.5 0.00 0.05 0.05 69 1005.1
20260507224018 8 300 1.6 14.5 0.00 0.05 0.05 69 1005.0
20260507223518 8 279 4.8 19.3 0.00 0.05 0.05 68 1005.1
20260507223032 8 0 4.8 19.3 0.00 0.05 0.05 68 1005.1
20260507222523 8 299 1.6 12.9 0.00 0.05 0.05 69 1005.1
20260507222017 8 248 3.2 14.5 0.00 0.05 0.05 69 1005.2
20260507221531 8 277 6.4 14.5 0.00 0.05 0.05 69 1005.1
20260507221016 8 266 3.2 9.7 0.00 0.05 0.05 69 1005.1
20260507220520 8 267 3.2 11.3 0.00 0.05 0.05 69 1005.1
20260507220034 8 309 4.8 11.3 0.00 0.05 0.05 70 1005.1
20260507215518 8 269 1.6 8.0 0.00 0.05 0.05 71 1005.1
20260507215016 7 33 1.6 8.0 0.00 0.05 0.05 72 1005.1
20260507214532 8 347 1.6 9.7 0.00 0.05 0.05 71 1005.2
20260507214015 8 322 3.2 11.3 0.00 0.05 0.05 70 1005.0
20260507213516 8 335 1.6 11.3 0.00 0.05 0.05 70 1005.0
20260507213040 8 334 4.8 11.3 0.00 0.05 0.05 70 1005.1
20260507212516 8 5 1.6 11.3 0.00 0.05 0.05 68 1005.0
20260507212022 8 24 3.2 12.9 0.00 0.05 0.05 68 1005.0
20260507211545 8 355 1.6 14.5 0.00 0.05 0.05 66 1004.9
20260507211017 9 322 4.8 27.4 0.00 0.05 0.05 63 1004.9
20260507210519 10 330 8.0 27.4 0.00 0.05 0.05 56 1004.8
20260507210034 10 247 9.7 24.1 0.00 0.05 0.05 54 1004.5
20260507205516 10 258 6.4 24.1 0.00 0.05 0.05 52 1004.4
20260507205015 10 227 4.8 33.8 0.00 0.05 0.05 53 1004.3
20260507204532 10 211 11.3 33.8 0.00 0.05 0.05 51 1004.0
20260507204043 10 276 4.8 22.5 0.00 0.05 0.05 52 1004.2
20260507203514 10 250 4.8 19.3 0.00 0.05 0.05 51 1004.0
20260507203035 10 282 8.0 19.3 0.00 0.05 0.05 54 1004.1
20260507202515 10 287 6.4 20.9 0.00 0.05 0.05 53 1004.0
20260507202020 10 225 3.2 20.9 0.00 0.05 0.05 54 1004.0
20260507201534 9 267 6.4 19.3 0.00 0.05 0.05 52 1004.0
20260507201015 9 261 6.4 19.3 0.00 0.05 0.05 55 1004.1
20260507200516 9 275 6.4 24.1 0.00 0.05 0.05 56 1004.1
20260507200031 9 252 9.7 24.1 0.00 0.05 0.05 56 1004.0
20260507195515 9 173 3.2 22.5 0.00 0.05 0.05 58 1004.0
20260507195014 9 215 6.4 22.5 0.00 0.05 0.05 56 1004.0
20260507194534 9 267 6.4 25.7 0.00 0.05 0.05 55 1004.1
20260507194015 9 265 9.7 25.7 0.00 0.05 0.05 53 1004.0
20260507193515 9 240 9.7 24.1 0.00 0.05 0.05 54 1004.0
20260507193035 9 248 4.8 27.4 0.00 0.05 0.05 57 1004.1
20260507192515 9 229 12.9 27.4 0.00 0.05 0.05 56 1004.0
20260507192013 9 261 12.9 30.6 0.00 0.05 0.05 55 1004.0
20260507191535 10 192 11.3 30.6 0.00 0.05 0.05 55 1003.9
20260507191015 10 257 9.7 27.4 0.00 0.05 0.05 55 1004.1
20260507190518 10 240 9.7 27.4 0.00 0.05 0.05 53 1004.0
20260507190034 10 214 9.7 27.4 0.00 0.05 0.05 52 1003.9
20260507185516 11 317 12.9 30.6 0.00 0.08 0.05 51 1003.9
20260507185016 11 172 12.9 30.6 0.00 0.08 0.05 52 1003.8
20260507184530 11 231 9.7 27.4 0.00 0.08 0.05 50 1003.9
20260507184018 11 211 9.7 24.1 0.00 0.08 0.05 50 1003.9
20260507183515 11 273 9.7 29.0 0.00 0.08 0.05 51 1003.9
20260507183030 11 254 8.0 32.2 0.00 0.08 0.05 50 1004.0
20260507182514 11 223 16.1 41.8 0.00 0.08 0.05 50 1003.9
20260507182014 11 170 14.5 41.8 0.00 0.08 0.05 51 1004.0
20260507181533 11 220 14.5 32.2 0.00 0.08 0.05 49 1004.0
20260507181019 11 229 11.3 30.6 0.00 0.08 0.05 49 1004.0
20260507180516 11 203 9.7 24.1 0.00 0.08 0.05 57 1004.2
20260507180033 10 300 11.3 24.1 0.00 0.08 0.05 55 1004.1
20260507175522 10 208 9.7 25.7 0.00 0.18 0.05 55 1004.3
20260507175015 10 250 12.9 33.8 0.00 0.18 0.05 54 1004.3
20260507174545 10 266 14.5 33.8 0.00 0.18 0.05 51 1004.2
20260507174018 10 254 12.9 27.4 0.00 0.18 0.05 52 1004.2
20260507173521 11 234 11.3 25.7 0.00 0.18 0.05 52 1004.2
20260507173033 11 163 9.7 25.7 0.00 0.18 0.05 53 1004.3
20260507172515 11 265 11.3 24.1 0.00 0.18 0.05 57 1004.4
20260507172019 10 211 8.0 22.5 0.00 0.18 0.05 56 1004.3
20260507171542 10 238 6.4 25.7 0.00 0.18 0.05 59 1004.2
20260507171016 10 221 9.7 25.7 0.00 0.18 0.05 57 1004.3
20260507170515 10 304 8.0 22.5 0.00 0.18 0.05 59 1004.3
20260507170035 10 282 9.7 27.4 0.00 0.18 0.05 59 1004.3
20260507165521 10 288 9.7 27.4 0.00 0.38 0.05 62 1004.4
20260507165015 9 277 4.8 22.5 0.00 0.38 0.05 63 1004.3
20260507164537 10 286 6.4 24.1 0.00 0.38 0.05 61 1004.4
20260507164016 10 273 6.4 24.1 0.00 0.38 0.05 63 1004.6
20260507163516 10 239 8.0 24.1 0.00 0.38 0.05 60 1004.6
20260507163034 10 229 9.7 29.0 0.00 0.38 0.05 61 1004.7
20260507162514 11 156 12.9 29.0 0.00 0.38 0.05 58 1004.6
20260507162016 10 240 9.7 25.7 0.00 0.38 0.05 59 1004.7
20260507161530 10 217 9.7 32.2 0.00 0.38 0.05 62 1004.6
20260507161018 10 253 11.3 32.2 0.00 0.38 0.05 57 1004.7
20260507160516 10 225 6.4 19.3 0.00 0.38 0.05 63 1004.9
20260507160048 9 260 4.8 22.5 0.00 0.38 0.05 62 1004.8
20260507155514 9 245 8.0 25.7 0.00 0.58 0.05 61 1004.9
20260507155014 9 259 8.0 25.7 0.00 0.58 0.05 63 1004.9
20260507154535 9 247 4.8 29.0 0.00 0.58 0.05 65 1004.8
20260507154016 9 246 11.3 29.0 0.00 0.58 0.05 62 1004.9
20260507153515 9 267 6.4 17.7 0.00 0.58 0.05 70 1005.0
20260507153035 8 147 1.6 19.3 0.00 0.58 0.05 74 1004.9
20260507152517 7 210 8.0 19.3 0.00 0.58 0.05 72 1005.0
20260507152018 7 277 4.8 20.9 0.00 0.58 0.05 77 1005.1
20260507151534 7 204 6.4 20.9 0.00 0.58 0.05 77 1005.3
20260507151015 6 260 8.0 19.3 0.00 0.58 0.05 76 1005.4
20260507150515 6 279 6.4 19.3 0.00 0.58 0.05 78 1005.5
20260507150037 6 254 6.4 14.5 0.00 0.58 0.05 78 1005.4
20260507145516 6 266 6.4 16.1 0.00 0.76 0.05 78 1005.4
20260507145020 6 246 6.4 19.3 0.00 0.76 0.05 78 1005.4
20260507144532 6 266 8.0 19.3 0.00 0.76 0.05 78 1005.4
20260507144016 6 167 9.7 20.9 0.00 0.76 0.05 79 1005.4
20260507143514 6 275 9.7 20.9 0.00 0.76 0.05 80 1005.4
20260507143032 6 203 8.0 20.9 0.03 0.76 0.05 80 1005.3
20260507142517 6 244 4.8 19.3 0.03 0.76 0.05 81 1005.3
20260507142017 6 157 6.4 19.3 0.03 0.76 0.05 82 1005.3
20260507141534 6 190 6.4 19.3 0.05 0.76 0.05 82 1005.3
20260507141018 6 217 6.4 19.3 0.05 0.76 0.05 83 1005.3
20260507140516 6 232 4.8 14.5 0.05 0.76 0.05 83 1005.3
20260507140044 6 231 6.4 14.5 0.05 0.76 0.05 84 1005.3
20260507135516 6 152 4.8 14.5 0.05 0.97 0.05 84 1005.3
20260507135018 6 235 1.6 14.5 0.05 0.97 0.05 85 1005.4
20260507134531 6 304 4.8 19.3 0.05 0.97 0.05 85 1005.4
20260507134016 6 204 3.2 20.9 0.05 0.97 0.05 85 1005.4
20260507133516 6 227 8.0 20.9 0.03 0.94 0.03 84 1005.5
20260507133034 6 199 6.4 17.7 0.03 0.94 0.03 84 1005.6
20260507132514 6 247 4.8 16.1 0.03 0.94 0.03 83 1005.5
20260507132016 6 215 4.8 16.1 0.03 0.94 0.03 83 1005.6
20260507131603 6 259 6.4 20.9 0.00 0.91 0.00 83 1005.5
20260507131016 6 240 8.0 22.5 0.00 0.91 0.00 83 1005.5
20260507130516 6 213 8.0 22.5 0.00 0.91 0.00 82 1005.5
20260507130031 6 245 6.4 17.7 0.00 0.91 0.00 83 1005.4
20260507125515 6 200 4.8 16.1 0.00 1.09 0.00 83 1005.4
20260507125015 6 252 8.0 16.1 0.00 1.09 0.00 83 1005.5
20260507124537 6 224 4.8 14.5 0.00 1.09 0.00 83 1005.4
20260507124013 6 183 4.8 14.5 0.00 1.09 0.00 83 1005.4
20260507123517 6 209 3.2 16.1 0.00 1.09 0.00 84 1005.4
20260507123040 6 0 4.8 16.1 0.00 1.09 0.00 84 1005.4
20260507122518 6 252 4.8 16.1 0.00 1.09 0.00 85 1005.4
20260507122015 6 221 4.8 16.1 0.00 1.09 0.00 85 1005.2
20260507121530 6 217 3.2 12.9 0.00 1.09 0.00 86 1005.2
20260507121015 6 195 4.8 11.3 0.00 1.09 0.00 86 1005.3
20260507120516 6 194 4.8 12.9 0.00 1.09 0.00 86 1005.3
20260507120033 6 220 4.8 12.9 0.00 1.09 0.00 86 1005.4
20260507115516 6 195 3.2 16.1 0.00 1.14 0.00 87 1005.4
20260507115014 6 148 4.8 16.1 0.00 1.14 0.00 87 1005.4
20260507114533 6 149 8.0 16.1 0.00 1.14 0.00 87 1005.5
20260507114020 6 192 6.4 14.5 0.00 1.14 0.00 87 1005.4
20260507113516 5 215 4.8 17.7 0.00 1.14 0.00 87 1005.3
20260507113100 5 235 6.4 17.7 0.00 1.14 0.00 87 1005.3
20260507112518 5 194 8.0 17.7 0.00 1.14 0.00 87 1005.4
20260507112019 5 178 4.8 19.3 0.00 1.14 0.00 87 1005.5
20260507111532 5 206 4.8 19.3 0.00 1.14 0.00 87 1005.5
20260507111016 5 182 8.0 16.1 0.00 1.14 0.00 87 1005.6
20260507110516 5 171 4.8 16.1 0.00 1.14 0.00 87 1005.5
20260507110038 5 165 4.8 16.1 0.00 1.14 0.00 87 1005.5
20260507105520 5 178 6.4 14.5 0.00 1.14 0.00 87 1005.6
20260507105014 5 207 4.8 16.1 0.00 1.14 0.00 87 1005.7
20260507104532 5 171 6.4 16.1 0.00 1.14 0.00 88 1005.7
20260507104015 5 176 4.8 12.9 0.00 1.14 0.00 88 1005.6
20260507103515 5 153 4.8 12.9 0.00 1.14 0.00 88 1005.5
20260507103029 5 158 4.8 11.3 0.00 1.14 0.00 88 1005.6
20260507102515 5 0 3.2 11.3 0.00 1.14 0.00 88 1005.4
20260507102017 5 170 1.6 12.9 0.00 1.14 0.00 88 1005.3
20260507101536 5 171 3.2 12.9 0.00 1.14 0.00 88 1005.3
20260507101015 5 185 4.8 8.0 0.00 1.14 0.00 88 1005.4
20260507100515 5 183 3.2 9.7 0.00 1.14 0.00 88 1005.3
20260507100042 5 155 4.8 14.5 0.00 1.14 0.00 88 1005.3
20260507095515 5 191 3.2 14.5 0.00 1.14 0.00 88 1005.1
20260507095015 5 168 4.8 14.5 0.00 1.14 0.00 88 1005.1
20260507094530 5 180 3.2 12.9 0.00 1.14 0.00 88 1005.1
20260507094014 5 206 6.4 12.9 0.00 1.14 0.00 88 1005.2
20260507093515 5 200 3.2 11.3 0.00 1.14 0.00 88 1005.2
20260507093035 5 195 4.8 11.3 0.00 1.14 0.00 88 1005.1
20260507092517 5 186 4.8 11.3 0.00 1.14 0.00 88 1004.9
20260507092017 5 160 4.8 11.3 0.00 1.14 0.00 88 1005.1
20260507091539 4 248 4.8 11.3 0.00 1.14 0.00 88 1005.2
20260507091014 5 184 4.8 12.9 0.00 1.14 0.00 87 1005.3
20260507090516 5 167 4.8 12.9 0.00 1.14 0.00 87 1005.4
20260507090032 5 189 1.6 11.3 0.00 1.14 0.00 87 1005.5
20260507085515 5 219 4.8 11.3 0.00 1.14 0.00 87 1005.4
20260507085013 5 152 4.8 11.3 0.00 1.14 0.00 87 1005.4
20260507084546 5 202 4.8 14.5 0.00 1.14 0.00 87 1005.5
20260507084016 5 178 3.2 14.5 0.00 1.14 0.00 87 1005.5
20260507083515 5 175 4.8 11.3 0.00 1.14 0.00 87 1005.4
20260507083030 5 236 4.8 11.3 0.00 1.14 0.00 87 1005.4
20260507082516 5 193 4.8 12.9 0.00 1.14 0.00 87 1005.4
20260507082014 5 172 3.2 12.9 0.00 1.14 0.00 87 1005.5
20260507081531 5 200 4.8 9.7 0.00 1.14 0.00 87 1005.5
20260507081017 5 200 4.8 11.3 0.00 1.14 0.00 87 1005.5
20260507080515 5 154 4.8 11.3 0.00 1.14 0.00 87 1005.5
20260507080030 5 188 3.2 8.0 0.00 1.14 0.00 87 1005.4
20260507075515 5 206 3.2 11.3 0.00 1.14 0.00 86 1005.4
20260507075020 5 180 4.8 19.3 0.00 1.14 0.00 87 1005.4
20260507074530 5 118 3.2 19.3 0.00 1.14 0.00 87 1005.4
20260507074015 5 173 4.8 11.3 0.00 1.14 0.00 87 1005.5
20260507073516 5 200 3.2 12.9 0.00 1.14 0.00 86 1005.5
20260507073032 5 244 3.2 16.1 0.00 1.14 0.00 86 1005.5
20260507072516 5 215 6.4 16.1 0.00 1.14 0.00 86 1005.5
20260507072016 5 165 4.8 14.5 0.00 1.14 0.00 87 1005.6
20260507071535 5 244 4.8 14.5 0.00 1.14 0.00 87 1005.6
20260507071017 5 207 4.8 12.9 0.00 1.14 0.00 87 1005.4
20260507070517 5 198 4.8 11.3 0.00 1.14 0.00 87 1005.5
20260507070030 5 0 3.2 14.5 0.00 1.14 0.00 87 1005.6
20260507065514 5 162 6.4 16.1 0.00 1.14 0.00 87 1005.5
20260507065016 5 200 3.2 16.1 0.00 1.14 0.00 87 1005.6
20260507064538 5 183 6.4 16.1 0.00 1.14 0.00 87 1005.6
20260507064015 5 158 3.2 11.3 0.00 1.14 0.00 87 1005.6
20260507063518 5 192 1.6 11.3 0.00 1.14 0.00 87 1005.7
20260507063031 5 184 3.2 14.5 0.00 1.14 0.00 87 1005.6
20260507062515 5 223 4.8 14.5 0.00 1.14 0.00 87 1005.7
20260507062015 5 171 3.2 9.7 0.00 1.14 0.00 87 1005.7
20260507061537 5 180 3.2 11.3 0.00 1.14 0.00 88 1005.8
20260507061016 5 204 4.8 11.3 0.00 1.14 0.00 88 1005.8
20260507060515 5 172 3.2 12.9 0.00 1.14 0.00 88 1005.9
20260507060037 5 180 3.2 12.9 0.00 1.14 0.00 88 1005.9
20260507055516 5 157 3.2 11.3 0.00 1.14 0.00 88 1006.1
20260507055015 5 181 4.8 11.3 0.00 1.14 0.00 88 1006.1
20260507054539 5 210 3.2 11.3 0.00 1.14 0.00 88 1006.1
20260507054020 5 0 6.4 11.3 0.00 1.14 0.00 88 1006.3
20260507053517 5 223 4.8 9.7 0.00 1.14 0.00 88 1006.4
20260507053032 5 205 1.6 12.9 0.00 1.14 0.00 88 1006.5
20260507052515 5 190 4.8 12.9 0.00 1.14 0.00 89 1006.6
20260507052016 5 173 3.2 14.5 0.00 1.14 0.00 89 1006.7
20260507051532 5 184 4.8 14.5 0.00 1.14 0.00 89 1006.7
20260507051021 5 208 1.6 9.7 0.00 1.14 0.00 89 1006.7
20260507050515 5 198 3.2 9.7 0.00 1.14 0.00 89 1006.8
20260507050058 5 184 3.2 8.0 0.00 1.14 0.00 89 1006.8
20260507045515 5 179 3.2 8.0 0.00 1.14 0.00 89 1006.8
20260507045015 5 188 1.6 8.0 0.00 1.14 0.00 89 1006.9
20260507044546 5 197 1.6 8.0 0.00 1.14 0.00 89 1006.9
20260507044015 5 178 3.2 8.0 0.00 1.14 0.00 89 1007.0
20260507043515 5 173 1.6 8.0 0.00 1.14 0.00 89 1007.0
20260507043032 5 208 3.2 8.0 0.00 1.14 0.00 89 1007.1
20260507042516 5 183 1.6 8.0 0.00 1.14 0.00 89 1007.1
20260507042015 5 182 3.2 8.0 0.00 1.14 0.00 89 1007.2
20260507041529 5 194 0.0 6.4 0.00 1.14 0.00 89 1007.2
20260507041015 5 188 1.6 6.4 0.00 1.14 0.00 89 1007.2
20260507040516 5 0 1.6 6.4 0.00 1.14 0.00 89 1007.2
20260507040029 5 180 1.6 4.8 0.00 1.14 0.00 89 1007.3
20260507035515 5 198 1.6 4.8 0.00 1.19 1.14 89 1007.3
20260507035015 5 0 0.0 3.2 0.00 1.19 1.14 89 1007.3
20260507034538 5 244 1.6 4.8 0.00 1.19 1.14 89 1007.3
20260507034018 5 0 0.0 4.8 0.00 1.19 1.14 89 1007.2
20260507033515 5 284 0.0 1.6 0.00 1.19 1.14 88 1007.2
20260507033038 5 0 0.0 1.6 0.00 1.19 1.14 88 1007.1
20260507032516 5 0 0.0 1.6 0.00 1.19 1.14 88 1007.2
20260507032015 5 0 0.0 1.6 0.00 1.19 1.14 88 1007.3
20260507031533 5 0 0.0 1.6 0.00 1.19 1.14 88 1007.4
20260507031016 5 0 0.0 1.6 0.00 1.19 1.14 88 1007.4
20260507030517 5 0 0.0 1.6 0.00 1.19 1.14 88 1007.4
20260507030036 5 0 0.0 1.6 0.00 1.19 1.14 88 1007.5
20260507025515 5 0 0.0 1.6 0.00 1.30 1.14 88 1007.4
20260507025018 5 0 0.0 1.6 0.00 1.30 1.14 88 1007.6
20260507024541 5 0 0.0 3.2 0.00 1.30 1.14 88 1007.7
20260507024015 5 0 0.0 3.2 0.00 1.30 1.14 88 1007.6
20260507023515 5 286 0.0 3.2 0.00 1.30 1.14 88 1007.7
20260507023032 5 0 0.0 1.6 0.00 1.30 1.14 88 1007.6
20260507022515 5 0 0.0 3.2 0.00 1.30 1.14 88 1007.5
20260507022015 5 0 0.0 3.2 0.00 1.30 1.14 88 1007.5
20260507021547 5 0 0.0 4.8 0.00 1.30 1.14 88 1007.9
20260507021015 6 0 0.0 4.8 0.00 1.30 1.14 88 1007.9
20260507020514 6 288 0.0 3.2 0.00 1.30 1.14 88 1007.8
20260507020032 6 289 1.6 3.2 0.00 1.30 1.14 88 1007.8
20260507015518 6 294 0.0 3.2 0.00 1.30 1.14 88 1007.6
20260507015019 6 0 0.0 3.2 0.00 1.30 1.14 87 1007.6
20260507014532 6 0 0.0 3.2 0.00 1.30 1.14 87 1007.6
20260507014020 6 294 0.0 3.2 0.00 1.30 1.14 87 1007.6
20260507013515 6 0 0.0 4.8 0.00 1.30 1.14 87 1007.5
20260507013036 6 0 0.0 4.8 0.00 1.30 1.14 87 1007.6
20260507012517 6 355 0.0 3.2 0.00 1.30 1.14 87 1007.5
20260507012015 6 355 0.0 1.6 0.00 1.30 1.14 87 1007.5
20260507011537 6 0 0.0 3.2 0.00 1.30 1.14 87 1007.4
20260507011017 6 0 0.0 3.2 0.00 1.30 1.14 87 1007.4
20260507010518 6 355 0.0 3.2 0.00 1.30 1.14 87 1007.4
20260507010043 6 0 0.0 3.2 0.00 1.30 1.14 86 1007.4
20260507005515 6 0 0.0 3.2 0.00 1.30 1.14 86 1007.4
20260507005024 6 355 0.0 3.2 0.00 1.30 1.14 86 1007.3